Current weather by "City, St" or "zip code"  
 
Advertise Here

Current Conditions: Tyndall Air Force Base, FL

Fair


47.0 F

Last Updated on Jan 18 2021, 3:56 am CST
Humidity: 60%
Wind Speed: N 10.4 mph
Barometer 30.10 in
Dewpoint: 34.3 F
Visibility: 10.00 mi
Precip: --
Heat Index: NA
Wind Chill: 42 F
Current conditions at:

Tyndall Air Force Base, FL (KPAM)

Lat: 30.06444 Lon: 85.5637

Local Radar Image active severe weather and emergency alerts image image weather storm and storm spotter reports image weather observation monitoring service image
Local
Radar
Active
Alerts
Storm Reports Obs
Monitoring

Sign-up For Email & Text Message Weather Alert Notification Services


Advertise Here

Observation History for Tyndall Air Force Base, FL


Time Wind
(mph)
Vis
(mi)
Weather Precip (in) Temperature (F) Relative
Humidity
Wind
Chill
(F)
Heat
Index
(F)
Pressure
Air Dwpt altimeter
(in)
sea level
(mb)
Rmks
3:56 am CST N 10.4 10.00 Fair -- 47.0 34.3 60% 42 NA 30.10 1019.6
2:56 am CST N 12.7 10.00 Fair -- 50.0 37.0 60% 45 NA 30.08 1018.9
1:56 am CST W 13.8 10.00 Fair -- 57.0 40.3 54% 54 NA 30.06 1018.2
12:56 am CST W 10.4 10.00 Fair -- 56.0 44.2 65% 53 NA 30.05 1017.9
11:56 pm CST W 11.5 10.00 Fair -- 56.0 44.4 66% 53 NA 30.05 1017.9
10:56 pm CST W 11.5 10.00 Fair -- 56.0 43.5 64% 53 NA 30.05 1017.9
9:56 pm CST W 10.4 10.00 Fair -- 55.0 43.3 65% 52 NA 30.05 1017.9
8:56 pm CST W 13.8 10.00 Fair -- 55.0 41.7 60% 51 NA 30.05 1017.9
7:56 pm CST W 9.2 10.00 Fair -- 54.0 39.9 58% 51 NA 30.04 1017.6
6:56 pm CST W 10.4 10.00 Fair -- 54.0 38.8 57% 51 NA 30.03 1017.2
5:56 pm CST W 9.2 10.00 Fair -- 54.0 39.2 58% 51 NA 30.02 1016.9
4:56 pm CST W 10.4 10.00 Fair -- 54.0 37.9 54% 51 NA 30.01 1016.6
3:56 pm CST W 6.9 10.00 Partly Cloudy -- 56.0 39.7 55% 54 NA 30.01 1016.6
2:56 pm CST W 6.9 10.00 Fair -- 56.0 37.9 50% 54 NA 30.00 1016.2
1:56 pm CST W 11.5 10.00 A Few Clouds -- 56.0 36.3 47% 53 NA 30.00 1016.2
12:56 pm CST W 10.4 10.00 Fair -- 56.0 33.4 43% 53 NA 30.02 1016.9
11:56 am CST W 12.7 10.00 Fair -- 55.0 29.5 37% 52 NA 30.06 1018.2
10:56 am CST NW 10.4 10.00 Fair -- 55.0 29.5 38% 52 NA 30.08 1018.9
9:56 am CST NW 10.4 10.00 Fair -- 53.0 30.7 42% 50 NA 30.11 1019.9
8:56 am CST N 8.1 10.00 Fair -- 49.0 32.4 53% 46 NA 30.10 1019.6
7:56 am CST N 9.2 10.00 Fair -- 44.0 33.3 66% 39 NA 30.08 1018.9
6:56 am CST N 4.6 10.00 Fair -- 39.0 31.8 75% 36 NA 30.07 1018.6
5:56 am CST N 3.5 10.00 Mostly Cloudy -- 40.0 32.5 73% NA NA 30.05 1017.9
4:56 am CST N 5.8 10.00 Overcast -- 42.0 33.6 73% 38 NA 30.03 1017.2

Regional Weather Observation


Tyndall Air Force Base, FL (KPAM)

Fair
47.0 F

Tyndall Drone Runway, FL (KTDR)

Fair
47.0 F

Tri-County Airport, FL (K1J0)

Fair
37.0 F

Marianna Municipal Airport, FL (KMAI)

Fair
39.0 F

DeFuniak Spr AP, FL (K54J)

Fair
38.0 F

Destin, Destin-Ft. Walton Beach Airport, FL (KDTS)

Fair
44.0 F